GW6128 Weather Reports


time (UTC)temp
C
wind
direction
speed
KPH
gust
KPH
rain 1hr
cm
rain 24hr
cm
rain mn
cm
humidity
%
barometer
mb
20260510113057 11 93 8.0 20.9 0.00 0.00 0.00 74 1015.6
20260510111548 11 54 9.7 20.9 0.00 0.00 0.00 73 1015.6
20260510110051 11 60 8.0 17.7 0.00 0.00 0.00 74 1015.8
20260510104557 12 316 8.0 20.9 0.00 0.00 0.00 74 1015.9
20260510103052 12 75 11.3 19.3 0.00 0.00 0.00 71 1015.7
20260510101555 12 43 9.7 19.3 0.00 0.00 0.00 72 1015.8
20260510094603 12 102 8.0 17.7 0.00 0.00 0.00 72 1015.7
20260510093050 12 49 9.7 25.7 0.00 0.00 0.00 70 1015.7
20260510091550 12 55 11.3 20.9 0.00 0.00 0.00 71 1015.7
20260510090056 12 56 8.0 22.5 0.00 0.00 0.00 73 1015.8
20260510084553 12 81 11.3 24.1 0.00 0.00 0.00 73 1016.0
20260510083048 11 52 9.7 22.5 0.00 0.00 0.00 75 1016.1
20260510081547 11 72 12.9 20.9 0.00 0.00 0.00 76 1016.2
20260510080054 11 50 9.7 25.7 0.00 0.00 0.00 77 1016.1
20260510074549 11 337 11.3 24.1 0.00 0.00 0.00 78 1016.2
20260510073048 11 47 8.0 17.7 0.00 0.00 0.00 81 1016.2
20260510071545 10 83 8.0 20.9 0.00 0.00 0.00 81 1016.2
20260510070105 10 49 6.4 20.9 0.00 0.00 0.00 82 1016.2
20260510064555 10 89 9.7 16.1 0.00 0.00 0.00 83 1016.3
20260510063059 10 53 8.0 17.7 0.00 0.00 0.00 84 1016.2
20260510061555 10 31 8.0 19.3 0.00 0.00 0.00 86 1016.1
20260510060116 9 60 8.0 17.7 0.00 0.00 0.00 87 1015.9
20260510054554 9 49 6.4 14.5 0.00 0.00 0.00 88 1015.8
20260510053052 9 68 6.4 22.5 0.00 0.00 0.00 88 1015.8
20260510051551 8 79 4.8 16.1 0.00 0.00 0.00 89 1015.8
20260510050054 8 56 4.8 17.7 0.00 0.00 0.00 89 1015.7
20260510044603 8 64 4.8 17.7 0.00 0.00 0.00 89 1015.7
20260510043054 8 84 6.4 12.9 0.00 0.00 0.00 90 1015.8
20260510041557 8 13 6.4 16.1 0.00 0.00 0.00 90 1015.9
20260510040053 8 63 4.8 16.1 0.00 0.00 0.00 90 1015.8
20260510034550 9 62 4.8 12.9 0.00 0.00 0.00 90 1015.9
20260510033118 9 71 4.8 12.9 0.00 0.00 0.00 90 1016.2
20260510031614 9 58 4.8 16.1 0.00 0.00 0.00 90 1016.2
20260510030052 9 122 4.8 12.9 0.00 0.00 0.00 90 1016.1
20260510024659 8 71 4.8 12.9 0.00 0.00 0.00 90 1016.1
20260510023057 8 61 4.8 14.5 0.00 0.00 0.00 90 1015.9
20260510021552 8 68 3.2 11.3 0.00 0.00 0.00 89 1016.1
20260510020048 9 61 3.2 9.7 0.00 0.00 0.00 88 1016.3
20260510014607 9 62 4.8 9.7 0.00 0.00 0.00 88 1016.4
20260510013056 9 86 3.2 9.7 0.00 0.00 0.00 88 1016.4
20260510011557 9 13 3.2 11.3 0.00 0.00 0.00 87 1016.2
20260510004558 9 56 4.8 11.3 0.00 0.00 0.00 84 1016.0
20260510003101 10 59 4.8 11.3 0.00 0.00 0.00 82 1016.2
20260510001551 10 53 1.6 11.3 0.00 0.00 0.00 81 1016.3
20260510000056 10 75 3.2 8.0 0.00 0.00 0.00 82 1016.4
20260509234605 10 82 3.2 9.7 0.00 0.00 0.00 83 1016.4
20260509233047 10 77 3.2 8.0 0.00 0.00 0.00 82 1016.5
20260509231548 10 56 3.2 9.7 0.00 0.00 0.00 81 1016.6
20260509230055 10 54 4.8 11.3 0.00 0.00 0.00 79 1016.6
20260509224549 10 58 4.8 9.7 0.00 0.00 0.00 79 1016.6
20260509223058 11 65 4.8 11.3 0.00 0.00 0.00 77 1016.5
20260509221553 11 78 0.0 3.2 0.00 0.00 0.00 75 1016.7
20260509214551 11 87 3.2 8.0 0.00 0.00 0.00 71 1016.5
20260509213055 11 65 4.8 11.3 0.00 0.00 0.00 69 1016.4
20260509211554 12 47 4.8 11.3 0.00 0.00 0.00 67 1016.4
20260509210056 12 54 3.2 9.7 0.00 0.00 0.00 67 1016.1
20260509204559 12 77 1.6 8.0 0.00 0.00 0.00 65 1016.1
20260509203058 12 0 1.6 11.3 0.00 0.00 0.00 64 1016.1
20260509201548 13 54 4.8 11.3 0.00 0.00 0.00 62 1016.0
20260509200054 13 97 3.2 11.3 0.00 0.00 0.00 60 1015.9
20260509194556 13 51 3.2 8.0 0.00 0.00 0.00 58 1015.9
20260509193047 13 40 3.2 8.0 0.00 0.00 0.00 57 1015.8
20260509191549 13 70 3.2 14.5 0.00 0.00 0.00 54 1015.8
20260509190052 14 108 4.8 11.3 0.00 0.00 0.00 52 1015.7
20260509184552 15 113 6.4 12.9 0.00 0.00 0.00 49 1015.6
20260509183053 15 63 4.8 12.9 0.00 0.00 0.00 48 1015.7
20260509181602 15 67 6.4 14.5 0.00 0.00 0.00 46 1015.6
20260509180058 16 85 8.0 19.3 0.00 0.00 0.00 46 1015.5
20260509174554 16 53 6.4 16.1 0.00 0.00 0.00 45 1015.4
20260509173058 16 82 8.0 22.5 0.00 0.00 0.00 43 1015.5
20260509171555 16 75 9.7 20.9 0.00 0.00 0.00 45 1015.5
20260509170054 17 68 8.0 19.3 0.00 0.00 0.00 47 1015.6
20260509164551 17 57 11.3 25.7 0.00 0.00 0.00 46 1015.6
20260509163100 17 115 9.7 20.9 0.00 0.00 0.00 46 1015.6
20260509161552 17 163 6.4 16.1 0.00 0.00 0.00 52 1015.8
20260509160049 17 62 8.0 19.3 0.00 0.00 0.00 51 1015.7
20260509154600 17 65 9.7 20.9 0.00 0.00 0.00 51 1015.9
20260509153050 17 99 8.0 22.5 0.00 0.00 0.00 51 1015.9
20260509151555 17 148 9.7 22.5 0.00 0.00 0.00 54 1015.9
20260509150050 18 137 9.7 20.9 0.00 0.00 0.00 53 1015.7
20260509144606 18 138 9.7 25.7 0.00 0.00 0.00 53 1015.5
20260509143053 18 40 9.7 20.9 0.00 0.00 0.00 53 1015.2
20260509141553 18 115 8.0 20.9 0.00 0.00 0.00 54 1015.4
20260509140105 18 82 9.7 22.5 0.00 0.00 0.00 57 1015.5
20260509134552 18 109 8.0 20.9 0.00 0.00 0.00 54 1015.5
20260509133105 18 347 9.7 22.5 0.00 0.00 0.00 53 1015.6
20260509131559 18 88 8.0 19.3 0.00 0.00 0.00 54 1015.6
20260509130059 18 56 9.7 20.9 0.00 0.00 0.00 56 1015.8
20260509124603 18 42 8.0 20.9 0.00 0.00 0.00 55 1016.0
20260509123052 18 39 8.0 20.9 0.00 0.00 0.00 55 1016.1
20260509121557 18 60 6.4 16.1 0.00 0.00 0.00 54 1016.2
20260509120054 18 105 8.0 17.7 0.00 0.00 0.00 53 1016.2
20260509114553 18 54 8.0 20.9 0.00 0.00 0.00 54 1016.4